EW8543 Weather Reports


Display with metric or nautical units.
time (UTC)temp
F
wind
direction
speed
MPH
gust
MPH
rain 1hr
in
rain 24hr
in
rain mn
in
humidity
%
barometer
mb
20190221181028 47 183 3.0 7.0 0.00 0.04 0.01 95 1028.8
20190221180542 47 221 3.0 9.0 0.00 0.04 0.01 95 1028.7
20190221180037 47 227 4.0 11.0 0.00 0.04 0.01 95 1028.7
20190221175531 48 244 6.0 11.0 0.00 0.04 0.01 95 1028.6
20190221175033 47 215 4.0 11.0 0.00 0.04 0.01 95 1028.5
20190221174547 47 194 6.0 11.0 0.00 0.04 0.01 95 1028.3
20190221174039 47 227 1.0 9.0 0.00 0.04 0.01 95 1028.3
20190221173529 47 215 4.0 9.0 0.00 0.04 0.01 95 1028.2
20190221173039 47 200 4.0 9.0 0.00 0.04 0.01 95 1028.1
20190221172533 48 237 4.0 9.0 0.00 0.04 0.01 95 1028.0
20190221172045 48 213 4.0 9.0 0.00 0.04 0.01 95 1028.1
20190221171536 48 313 5.0 10.0 0.00 0.04 0.01 95 1027.9
20190221171028 48 288 4.0 9.0 0.00 0.04 0.01 95 1027.8
20190221170541 47 260 5.0 13.0 0.00 0.04 0.01 95 1027.8
20190221170045 47 263 5.0 12.0 0.00 0.04 0.01 95 1027.7
20190221165535 47 212 6.0 12.0 0.00 0.04 0.01 95 1027.6
20190221165047 47 225 5.0 12.0 0.00 0.04 0.01 95 1027.5
20190221164540 47 267 5.0 12.0 0.00 0.04 0.01 95 1027.5
20190221164032 47 220 6.0 13.0 0.00 0.04 0.01 95 1027.5
20190221163542 47 243 6.0 15.0 0.00 0.04 0.01 95 1027.4
20190221163032 47 219 4.0 14.0 0.00 0.04 0.01 95 1027.4
20190221162544 48 236 5.0 13.0 0.00 0.04 0.01 95 1027.4
20190221162032 48 261 7.0 13.0 0.00 0.04 0.01 95 1027.5
20190221161545 48 240 6.0 17.0 0.00 0.04 0.01 95 1027.4
20190221161037 48 233 8.0 17.0 0.00 0.04 0.01 94 1027.5
20190221160531 48 281 8.0 17.0 0.00 0.04 0.01 95 1027.4
20190221160037 48 275 8.0 15.0 0.00 0.04 0.01 94 1027.4
20190221155529 48 252 9.0 16.0 0.00 0.04 0.01 94 1027.3
20190221155042 48 291 5.0 16.0 0.00 0.04 0.01 94 1027.2
20190221154536 48 225 6.0 13.0 0.00 0.04 0.01 94 1027.2
20190221154043 48 290 7.0 11.0 0.00 0.04 0.01 94 1027.1
20190221153535 48 256 6.0 15.0 0.00 0.04 0.01 94 1027.0
20190221153046 48 219 7.0 15.0 0.00 0.04 0.01 94 1026.9
20190221152539 48 313 7.0 14.0 0.00 0.04 0.01 95 1026.9
20190221152047 48 257 6.0 13.0 0.00 0.04 0.01 95 1026.9
20190221151541 48 265 6.0 17.0 0.04 0.04 0.01 95 1026.8
20190221151034 48 238 5.0 17.0 0.04 0.04 0.01 95 1026.8
20190221150528 48 250 5.0 15.0 0.04 0.04 0.01 95 1026.8
20190221150040 48 294 7.0 17.0 0.04 0.04 0.01 95 1026.8
20190221145533 48 267 9.0 18.0 0.04 0.04 0.01 95 1026.7
20190221145043 48 255 7.0 18.0 0.04 0.04 0.01 95 1026.7
20190221144533 48 282 7.0 16.0 0.04 0.04 0.01 95 1026.7
20190221144035 47 308 5.0 14.0 0.04 0.04 0.01 95 1026.6
20190221143529 47 216 4.0 15.0 0.04 0.04 0.01 95 1026.7
20190221143042 47 239 9.0 16.0 0.04 0.04 0.01 95 1026.6
20190221142529 47 230 8.0 16.0 0.04 0.04 0.01 94 1026.6
20190221142038 47 169 8.0 15.0 0.04 0.04 0.01 94 1026.5
20190221141532 47 221 10.0 15.0 0.00 0.00 0.00 94 1026.5
20190221141032 47 164 6.0 15.0 0.00 0.00 0.00 93 1026.6
20190221140546 47 238 8.0 15.0 0.00 0.00 0.00 93 1026.7
20190221140029 48 239 5.0 17.0 0.00 0.00 0.00 93 1026.7
20190221135542 48 298 10.0 17.0 0.00 0.00 0.00 93 1026.5
20190221135032 48 284 8.0 15.0 0.00 0.00 0.00 92 1026.6
20190221134546 48 186 10.0 15.0 0.00 0.00 0.00 92 1026.6
20190221134037 48 219 7.0 16.0 0.00 0.00 0.00 91 1026.5
20190221133531 48 216 10.0 18.0 0.00 0.00 0.00 90 1026.5
20190221133030 48 192 10.0 18.0 0.00 0.00 0.00 89 1026.6
20190221132543 49 196 10.0 16.0 0.00 0.00 0.00 89 1026.7
20190221132035 49 311 9.0 17.0 0.00 0.00 0.00 88 1026.5
20190221131543 49 248 9.0 16.0 0.00 0.00 0.00 88 1026.4
20190221131031 49 240 8.0 17.0 0.00 0.00 0.00 87 1026.5
20190221130545 49 232 8.0 17.0 0.00 0.00 0.00 87 1026.3
20190221130030 49 151 9.0 15.0 0.00 0.00 0.00 87 1026.3
20190221125540 50 275 5.0 15.0 0.00 0.00 0.00 87 1026.2
20190221125031 50 260 8.0 15.0 0.00 0.00 0.00 86 1026.2
20190221124546 50 244 5.0 17.0 0.00 0.00 0.00 87 1026.2
20190221124039 49 258 11.0 18.0 0.00 0.00 0.00 86 1026.1
20190221123529 50 205 12.0 18.0 0.00 0.00 0.00 86 1026.1
20190221123040 50 239 8.0 12.0 0.00 0.00 0.00 86 1026.2
20190221122534 50 198 7.0 13.0 0.00 0.00 0.00 86 1026.0
20190221122046 50 311 5.0 12.0 0.00 0.00 0.00 87 1026.0
20190221121536 49 230 7.0 12.0 0.00 0.00 0.00 88 1026.0
20190221121028 49 231 6.0 12.0 0.00 0.00 0.00 88 1026.1
20190221120542 49 211 7.0 12.0 0.00 0.00 0.00 88 1026.1
20190221120042 49 259 6.0 11.0 0.00 0.00 0.00 88 1026.0
20190221115536 49 217 6.0 16.0 0.00 0.00 0.00 88 1026.1
20190221115029 49 201 7.0 16.0 0.00 0.00 0.00 88 1026.0
20190221114542 49 215 7.0 12.0 0.00 0.00 0.00 88 1026.0
20190221114031 49 153 5.0 12.0 0.00 0.00 0.00 88 1025.9
20190221113545 49 178 5.0 12.0 0.00 0.00 0.00 88 1026.0
20190221113035 49 209 7.0 12.0 0.00 0.00 0.00 88 1026.1
20190221112528 49 232 6.0 10.0 0.00 0.00 0.00 88 1026.2
20190221112038 49 212 6.0 12.0 0.00 0.00 0.00 89 1026.1
20190221111531 49 228 7.0 13.0 0.00 0.00 0.00 88 1026.2
20190221111040 49 238 7.0 14.0 0.00 0.00 0.00 89 1026.1
20190221110534 49 227 8.0 14.0 0.00 0.00 0.00 89 1026.0
20190221110032 49 169 7.0 11.0 0.00 0.00 0.00 89 1026.0
20190221105545 49 211 6.0 11.0 0.00 0.00 0.00 89 1026.0
20190221105036 49 200 5.0 10.0 0.00 0.00 0.00 90 1026.0
20190221104529 48 223 7.0 9.0 0.00 0.00 0.00 90 1026.0
20190221104033 48 192 5.0 11.0 0.00 0.00 0.00 90 1026.1
20190221103547 48 259 6.0 11.0 0.00 0.00 0.00 90 1026.1
20190221103033 48 259 7.0 12.0 0.00 0.00 0.00 90 1026.0
20190221102542 48 196 6.0 12.0 0.00 0.00 0.00 89 1026.1
20190221102032 49 219 7.0 12.0 0.00 0.00 0.00 89 1026.1
20190221101546 49 240 7.0 12.0 0.00 0.00 0.00 89 1026.1
20190221101038 49 203 6.0 11.0 0.00 0.00 0.00 88 1026.0
20190221100528 49 211 6.0 10.0 0.00 0.00 0.00 88 1026.0
20190221100031 49 214 7.0 13.0 0.00 0.00 0.00 88 1026.0
20190221095545 48 240 7.0 14.0 0.00 0.00 0.00 88 1026.0
20190221095037 49 242 6.0 14.0 0.00 0.00 0.00 88 1026.0
20190221094547 48 207 7.0 11.0 0.00 0.00 0.00 88 1025.8
20190221094037 48 226 4.0 15.0 0.00 0.00 0.00 88 1025.8
20190221093529 48 229 7.0 15.0 0.00 0.00 0.00 88 1025.8
20190221093037 48 221 5.0 11.0 0.00 0.00 0.00 88 1025.8
20190221092530 48 180 5.0 11.0 0.00 0.00 0.00 89 1025.7
20190221092042 48 183 5.0 11.0 0.00 0.00 0.00 89 1025.7
20190221091535 48 251 5.0 11.0 0.00 0.00 0.00 89 1025.7
20190221091045 48 211 5.0 11.0 0.00 0.00 0.00 89 1025.6
20190221090537 48 211 7.0 11.0 0.00 0.00 0.00 89 1025.5
20190221090043 48 202 6.0 11.0 0.00 0.00 0.00 89 1025.4
20190221085536 48 195 6.0 12.0 0.00 0.00 0.00 89 1025.3
20190221085042 48 205 7.0 12.0 0.00 0.00 0.00 89 1025.3
20190221084536 47 217 6.0 12.0 0.00 0.00 0.00 89 1025.2
20190221084029 47 237 7.0 12.0 0.00 0.00 0.00 89 1025.2
20190221083543 47 183 6.0 12.0 0.00 0.00 0.00 89 1025.2
20190221083030 47 188 6.0 10.0 0.00 0.00 0.00 89 1025.1
20190221082543 47 220 6.0 10.0 0.00 0.00 0.00 89 1025.2
20190221082035 47 165 4.0 9.0 0.00 0.00 0.00 89 1025.1
20190221081529 46 196 4.0 9.0 0.00 0.00 0.00 89 1025.1
20190221081038 46 205 5.0 10.0 0.00 0.00 0.00 89 1025.0
20190221080532 46 185 5.0 10.0 0.00 0.00 0.00 89 1025.0
20190221080039 46 188 4.0 9.0 0.00 0.00 0.00 89 1025.0
20190221075529 46 198 4.0 9.0 0.00 0.00 0.00 89 1024.9
20190221075040 46 284 5.0 10.0 0.00 0.00 0.00 90 1024.7
20190221074534 46 191 6.0 10.0 0.00 0.00 0.00 90 1024.6
20190221074045 46 200 5.0 11.0 0.00 0.00 0.00 90 1024.5
20190221073535 46 227 6.0 10.0 0.00 0.00 0.00 90 1024.6
20190221073046 46 221 5.0 10.0 0.00 0.00 0.00 90 1024.4
20190221072539 46 167 6.0 10.0 0.00 0.00 0.00 90 1024.3
20190221072032 46 218 5.0 8.0 0.00 0.00 0.00 89 1024.2
20190221071542 46 178 5.0 8.0 0.00 0.00 0.00 89 1024.2
20190221071034 46 198 5.0 8.0 0.00 0.00 0.00 89 1024.1
20190221070547 46 201 4.0 10.0 0.00 0.00 0.00 89 1024.1
20190221070031 46 212 5.0 15.0 0.00 0.00 0.00 89 1024.0
20190221065541 46 231 8.0 15.0 0.00 0.00 0.00 89 1023.8
20190221065032 46 251 4.0 10.0 0.00 0.00 0.00 89 1023.8
20190221064546 46 239 4.0 12.0 0.00 0.00 0.00 89 1023.7
20190221064036 46 219 6.0 13.0 0.00 0.00 0.00 89 1023.4
20190221063530 46 206 9.0 13.0 0.00 0.00 0.00 89 1023.4
20190221063041 46 211 8.0 13.0 0.00 0.00 0.00 89 1023.6
20190221062534 46 207 6.0 13.0 0.00 0.00 0.00 89 1023.6
20190221062043 46 204 7.0 13.0 0.00 0.00 0.00 90 1023.7
20190221061536 46 207 8.0 14.0 0.00 0.00 0.00 90 1023.8
20190221061028 46 224 6.0 12.0 0.00 0.00 0.00 90 1023.9
20190221060540 46 184 6.0 11.0 0.00 0.00 0.00 90 1024.0
20190221060041 46 198 6.0 11.0 0.00 0.00 0.00 91 1023.9
20190221055534 45 215 5.0 11.0 0.00 0.00 0.00 91 1023.9
20190221055046 45 211 5.0 10.0 0.00 0.00 0.00 90 1023.9
20190221054540 45 200 5.0 10.0 0.00 0.00 0.00 90 1023.8
20190221054029 45 212 6.0 9.0 0.00 0.00 0.00 90 1023.8
20190221053542 45 181 5.0 9.0 0.00 0.00 0.00 90 1023.9
20190221053034 45 215 5.0 9.0 0.00 0.00 0.00 90 1024.1
20190221052543 45 225 4.0 9.0 0.00 0.00 0.00 90 1024.1
20190221052035 45 210 5.0 8.0 0.00 0.00 0.00 90 1024.0
20190221051529 45 177 5.0 10.0 0.00 0.00 0.00 89 1024.0
20190221051041 45 200 6.0 10.0 0.00 0.00 0.00 89 1023.9
20190221050531 45 221 5.0 10.0 0.00 0.00 0.00 89 1024.0
20190221050034 45 207 6.0 11.0 0.00 0.00 0.00 89 1024.0
20190221045528 45 237 6.0 11.0 0.00 0.00 0.00 88 1023.9
20190221045040 45 156 6.0 10.0 0.00 0.00 0.00 88 1023.9
20190221044530 45 203 6.0 10.0 0.00 0.00 0.00 88 1023.9
20190221044044 45 163 6.0 10.0 0.00 0.00 0.00 87 1023.8
20190221043538 46 217 7.0 14.0 0.00 0.00 0.00 87 1023.8
20190221043030 45 180 5.0 14.0 0.00 0.00 0.00 87 1023.9
20190221042538 45 207 7.0 11.0 0.00 0.00 0.00 87 1023.8
20190221042029 45 209 4.0 11.0 0.00 0.00 0.00 87 1023.8
20190221041544 45 171 6.0 11.0 0.00 0.00 0.00 87 1023.8
20190221041034 45 184 6.0 11.0 0.00 0.00 0.00 86 1023.8
20190221040544 45 213 7.0 11.0 0.00 0.00 0.00 86 1023.7
20190221040044 45 179 6.0 12.0 0.00 0.00 0.00 86 1023.8
20190221035536 46 184 6.0 12.0 0.00 0.00 0.00 85 1023.7
20190221035044 46 229 7.0 14.0 0.00 0.00 0.00 85 1023.8
20190221034538 46 165 6.0 14.0 0.00 0.00 0.00 86 1023.7
20190221034029 45 196 6.0 11.0 0.00 0.00 0.00 86 1023.7
20190221033542 45 248 6.0 14.0 0.00 0.00 0.00 86 1023.7
20190221033030 45 190 7.0 14.0 0.00 0.00 0.00 86 1023.7
20190221032545 45 182 6.0 10.0 0.00 0.00 0.00 86 1023.8
20190221032036 45 192 6.0 10.0 0.00 0.00 0.00 86 1023.9
20190221031530 45 217 5.0 10.0 0.00 0.00 0.00 86 1023.9
20190221031036 45 186 6.0 10.0 0.00 0.00 0.00 87 1023.9
20190221030531 45 205 5.0 10.0 0.00 0.00 0.00 86 1024.0
20190221030028 45 196 5.0 10.0 0.00 0.00 0.00 87 1024.0
20190221025536 45 212 4.0 9.0 0.00 0.00 0.00 86 1023.9
20190221025046 45 237 5.0 10.0 0.00 0.00 0.00 86 1024.0
20190221024540 45 194 6.0 11.0 0.00 0.00 0.00 86 1024.1
20190221024031 45 201 4.0 9.0 0.00 0.00 0.00 86 1024.1
20190221023542 45 242 4.0 11.0 0.00 0.00 0.00 86 1024.1
20190221023035 45 211 6.0 11.0 0.00 0.00 0.00 86 1024.1
20190221022527 46 221 5.0 11.0 0.00 0.00 0.00 86 1024.1
20190221022036 45 219 5.0 11.0 0.00 0.00 0.00 86 1024.3
20190221021543 45 219 4.0 9.0 0.00 0.00 0.00 86 1024.3
20190221021032 45 214 6.0 9.0 0.00 0.00 0.00 86 1024.3
20190221020544 45 209 5.0 8.0 0.00 0.00 0.00 86 1024.3
20190221020041 45 219 4.0 8.0 0.00 0.00 0.00 86 1024.4
20190221015533 45 225 4.0 10.0 0.00 0.00 0.00 86 1024.4
20190221015046 45 199 5.0 10.0 0.00 0.00 0.00 86 1024.3
20190221014539 45 207 4.0 11.0 0.00 0.00 0.00 86 1024.2
20190221014029 45 217 6.0 9.0 0.00 0.00 0.00 86 1024.2
20190221013542 45 210 5.0 9.0 0.00 0.00 0.00 86 1024.2
20190221013031 45 256 5.0 10.0 0.00 0.00 0.00 86 1024.2
20190221012544 45 206 6.0 12.0 0.00 0.00 0.00 86 1024.1
20190221012030 45 167 6.0 12.0 0.00 0.00 0.00 86 1024.1
20190221011545 45 211 5.0 11.0 0.00 0.00 0.00 86 1024.1
20190221011036 45 208 6.0 9.0 0.00 0.00 0.00 86 1024.1
20190221010530 45 213 4.0 11.0 0.00 0.00 0.00 86 1024.1
20190221010044 45 182 6.0 11.0 0.00 0.00 0.00 86 1024.1
20190221005537 45 256 5.0 10.0 0.00 0.00 0.00 86 1024.1
20190221005027 45 188 5.0 10.0 0.00 0.00 0.00 86 1024.1
20190221004536 45 218 5.0 8.0 0.00 0.00 0.00 85 1024.0
20190221004044 45 207 5.0 11.0 0.00 0.00 0.00 86 1024.0
20190221003538 45 205 6.0 11.0 0.00 0.00 0.00 85 1024.0
20190221003029 45 174 5.0 10.0 0.00 0.00 0.00 85 1023.9
20190221002538 45 207 6.0 15.0 0.00 0.00 0.00 85 1023.9
20190221002029 45 233 6.0 15.0 0.00 0.00 0.00 84 1023.9
20190221001543 46 250 6.0 12.0 0.00 0.00 0.00 84 1023.8
20190221001036 46 219 8.0 13.0 0.00 0.00 0.00 84 1023.9
20190221000545 46 218 7.0 14.0 0.00 0.00 0.00 84 1023.7
20190221000047 45 245 7.0 13.0 0.00 0.00 0.00 84 1023.7
20190220235540 46 214 7.0 11.0 0.00 0.00 0.00 84 1023.7
20190220235029 46 205 6.0 10.0 0.00 0.00 0.00 83 1023.6
20190220234538 46 211 5.0 11.0 0.00 0.00 0.00 83 1023.5
20190220234030 46 210 6.0 11.0 0.00 0.00 0.00 83 1023.5
20190220233544 46 247 6.0 11.0 0.00 0.00 0.00 83 1023.4
20190220233032 46 171 6.0 12.0 0.00 0.00 0.00 83 1023.4
20190220232546 46 220 5.0 11.0 0.00 0.00 0.00 83 1023.3
20190220232038 46 215 7.0 11.0 0.00 0.00 0.00 83 1023.4
20190220231534 46 205 6.0 12.0 0.00 0.00 0.00 83 1023.4
20190220231042 46 200 6.0 12.0 0.00 0.00 0.00 83 1023.3
20190220230535 46 182 5.0 13.0 0.00 0.00 0.00 83 1023.3
20190220230037 46 209 8.0 13.0 0.00 0.00 0.00 83 1023.2
20190220225530 46 236 5.0 10.0 0.00 0.00 0.00 83 1023.2
20190220225037 46 205 6.0 10.0 0.00 0.00 0.00 83 1023.2
20190220224532 46 215 5.0 10.0 0.00 0.00 0.00 83 1023.2
20190220224037 46 207 6.0 12.0 0.00 0.00 0.00 82 1023.2
20190220223530 46 184 6.0 12.0 0.00 0.00 0.00 82 1023.2
20190220223031 46 201 6.0 12.0 0.00 0.00 0.00 82 1023.3
20190220222545 46 225 8.0 14.0 0.00 0.00 0.00 82 1023.3
20190220222034 46 220 7.0 15.0 0.00 0.00 0.00 82 1023.2
20190220221528 46 239 8.0 15.0 0.00 0.00 0.00 82 1023.1
20190220221036 46 253 5.0 15.0 0.00 0.00 0.00 82 1023.1
20190220220530 46 194 7.0 15.0 0.00 0.00 0.00 82 1023.1
20190220220033 46 181 6.0 14.0 0.00 0.00 0.00 82 1023.0
20190220215541 46 232 6.0 12.0 0.00 0.00 0.00 82 1023.0
20190220215035 46 187 6.0 12.0 0.00 0.00 0.00 82 1023.0
20190220214546 46 194 7.0 11.0 0.00 0.00 0.00 82 1023.0
20190220214037 46 202 4.0 9.0 0.00 0.00 0.00 82 1023.0
20190220213547 46 221 6.0 11.0 0.00 0.00 0.00 82 1022.9
20190220213035 46 215 6.0 11.0 0.00 0.00 0.00 82 1022.9
20190220212527 46 195 6.0 10.0 0.00 0.00 0.00 82 1022.9
20190220212039 46 161 5.0 10.0 0.00 0.00 0.00 82 1022.9
20190220211527 46 169 6.0 10.0 0.00 0.00 0.00 82 1022.9
20190220211036 46 187 5.0 10.0 0.00 0.00 0.00 83 1022.9
20190220210528 46 183 6.0 10.0 0.00 0.00 0.00 83 1022.8
20190220210044 46 186 4.0 12.0 0.00 0.00 0.00 83 1022.9
20190220205537 46 182 6.0 12.0 0.00 0.00 0.00 84 1022.8
20190220205028 45 223 4.0 9.0 0.00 0.00 0.00 84 1022.8
20190220204542 45 194 4.0 6.0 0.00 0.00 0.00 84 1022.8
20190220204029 45 199 3.0 5.0 0.00 0.00 0.00 83 1022.8
20190220203543 45 197 3.0 6.0 0.00 0.00 0.00 82 1022.8
20190220203036 45 204 3.0 6.0 0.00 0.00 0.00 82 1022.7
20190220202529 45 178 3.0 6.0 0.00 0.00 0.00 82 1022.7
20190220202037 45 209 2.0 5.0 0.00 0.00 0.00 82 1022.6
20190220201530 45 199 2.0 6.0 0.00 0.00 0.00 81 1022.6
20190220201041 46 154 3.0 6.0 0.00 0.00 0.00 81 1022.6
20190220200534 46 157 3.0 6.0 0.00 0.00 0.00 81 1022.6
20190220200031 46 171 3.0 6.0 0.00 0.00 0.00 81 1022.7
20190220195544 46 180 2.0 5.0 0.00 0.00 0.00 81 1022.9
20190220195036 46 153 3.0 5.0 0.00 0.00 0.00 81 1022.9
20190220194545 46 198 2.0 6.0 0.00 0.00 0.00 80 1022.9
20190220194035 47 202 3.0 6.0 0.00 0.00 0.00 80 1022.9
20190220193547 47 180 3.0 7.0 0.00 0.00 0.00 79 1023.0
20190220193037 47 175 4.0 7.0 0.00 0.00 0.00 79 1023.0
20190220192546 47 201 4.0 8.0 0.00 0.00 0.00 78 1022.9
20190220192036 47 219 5.0 10.0 0.00 0.00 0.00 78 1022.9
20190220191528 47 170 6.0 10.0 0.00 0.00 0.00 77 1022.9
20190220191040 47 204 3.0 7.0 0.00 0.00 0.00 76 1022.8
20190220190530 48 231 5.0 9.0 0.00 0.00 0.00 76 1022.8
20190220190033 48 222 6.0 10.0 0.00 0.00 0.00 75 1022.8
20190220185546 48 210 5.0 10.0 0.00 0.00 0.00 75 1022.8
20190220185034 48 193 4.0 9.0 0.00 0.00 0.00 74 1022.7
20190220184546 48 204 6.0 11.0 0.00 0.00 0.00 74 1022.7
20190220184036 48 212 5.0 11.0 0.00 0.00 0.00 73 1022.6
20190220183529 48 207 4.0 11.0 0.00 0.00 0.00 73 1022.6
20190220183036 48 199 5.0 9.0 0.00 0.00 0.00 73 1022.6
20190220182530 48 194 5.0 9.0 0.00 0.00 0.00 73 1022.5
20190220182042 48 189 4.0 7.0 0.00 0.00 0.00 74 1022.5
20190220181536 48 198 4.0 6.0 0.00 0.00 0.00 74 1022.5